Regional Weather Roundup
Issued by NWS

Home | Current Version | Previous Version | Graphics & Text | Print | Product List | Glossary Off
Versions: 1 2 3 4 5 6 7 8 9 10 11 12 13 14 15 16 17 18 19 20 21 22 23 24 25 26 27 28 29 30 31 32 33 34 35 36 37 38 39 40 41 42 43 44 45 46 47 48 49 50

000
ASUS43 KFSD 171210
RWRSD

WEATHER ROUNDUP FOR SOUTH DAKOTA
NATIONAL WEATHER SERVICE SIOUX FALLS SD
700 AM CDT THU APR 17 2014

NOTE: "FAIR" INDICATES FEW OR NO CLOUDS BELOW 12,000 FEET WITH NO
SIGNIFICANT WEATHER AND/OR OBSTRUCTIONS TO VISIBILITY.


SDZ001>005-009-010-012>017-171300-
NORTHWEST AND NORTH CENTRAL SOUTH DAKOTA

CITY           SKY/WX    TMP DP  RH WIND       PRES   REMARKS
BUFFALO          N/A     28  26  92 SE16      30.06F WCI  16
FAITH            N/A     28  21  75 SE12      30.20F WCI  18
MOBRIDGE       MOCLDY    23  15  71 SE6       30.27R WCI  16
$$

SDZ012>016-024>037-041>051-057-063-072>074-171300-
SOUTHWEST AND SOUTH CENTRAL SOUTH DAKOTA

CITY           SKY/WX    TMP DP  RH WIND       PRES   REMARKS
RAPID CTY ARPT CLOUDY    30  27  86 SE10      30.14S WCI  21
PIERRE         CLOUDY    22  18  85 CALM      30.28S
CUSTER         CLOUDY    26  25  96 SW5       30.07R FOG     WCI  20
ELLSWORTH AFB  CLOUDY    30  27  88 S13       30.13S WCI  20
PHILIP         MOCLDY    30  23  75 SE7       30.24S WCI  23
PINE RIDGE     CLOUDY    31  27  85 SE7       30.16F WCI  24
SPEARFISH      FAIR      27  23  86 S6        30.08F WCI  20
WINNER         FAIR      21  17  84 CALM      30.29R
$$

SDZ004>011-016>023-039-040-171300-
NORTHEAST SOUTH DAKOTA

CITY           SKY/WX    TMP DP  RH WIND       PRES   REMARKS
ABERDEEN       CLEAR     16  13  88 N7        30.31R WCI   6
WATERTOWN      PTCLDY    18  13  80 N6        30.24R WCI  10
SISSETON         N/A     19  15  84 NW10      30.28R WCI   7
$$

SDZ017-020-022-023-036>040-048>070-171300-
SOUTHEAST SOUTH DAKOTA

CITY           SKY/WX    TMP DP  RH WIND       PRES   REMARKS
SIOUX FALLS    PTCLDY    20  17  88 NW3       30.25R
HURON          CLEAR     15  12  88 W7        30.32R WCI   5
CHAMBERLAIN      N/A     20  16  84 CALM      30.31R
MITCHELL       CLEAR     20  17  88 NW8       30.31R WCI  10
YANKTON        CLEAR     23  19  86 NW12      30.29R WCI  12
$$

ABBREVIATIONS USED IN REMARKS
   TC - TEMPERATURE IN CELSIUS
  WCI - WIND CHILL INDEX
   HX - HEAT INDEX
  VSB - VISIBILITY




USA.gov is the U.S. government's official web portal to all federal, state and local government web resources and services.